Terminal Aerodrome Forecast
Issued by NWS Binghamton, NY

Home | Current Version | Previous Version | Text Only | Print | Product List | Glossary On
Versions: 1 2 3 4 5 6 7 8 9 10 11 12 13 14 15 16 17 18 19 20 21
691
FTUS41 KBGM 060854 AAA
TAFBGM
TAF AMD
KBGM 060854Z 0609/0706 23005KT P6SM BKN060
     FM061500 23010G18KT P6SM BKN045
     FM062300 22005KT P6SM SCT050=

USA.gov is the U.S. government's official web portal to all federal, state and local government web resources and services.